Enid, OK

4:41 PM CDT on May 22, 2017 (GMT -0500)
Enid Woodring Municipal

Weather History for KWDG - November, 2012

Change the Weather History Date:

Friday, November 2, 2012

  Actual Average Record
Temperature  
Mean Temperature 66 °F -  
Max Temperature 89 °F 60 °F 89 °F (2012)
Min Temperature 44 °F 44 °F 23 °F (2006)
Cooling Degree Days 2    
Growing Degree Days 16 (Base 50)    
Moisture  
Dew Point 43 °F    
Average Humidity 61    
Maximum Humidity 93    
Minimum Humidity 18    
Precipitation  
Precipitation 0.00 in - - ()
Sea Level Pressure  
Sea Level Pressure 29.87 in    
Wind  
Wind Speed 6 mph (SW)    
Max Wind Speed 29 mph    
Max Gust Speed 37 mph    
Visibility 10 miles    
Events      
Averages and records for this station are not official NWS values.
T = Trace of Precipitation, MM = Missing Value Source: NWS Daily Summary

Daily Weather History Graph

Daily Weather History Graph

Search for Another Location

Airport or City:

Trip Planner

Search our weather history database for the weather conditions in past years. The results will help you decide how hot, cold, wet, or windy it might be!

Date:

Astronomy

Nov. 02, 2012 Rise Set
Actual Time 7:55 AM CDT 6:33 PM CDT
Civil Twilight 7:29 AM CDT 6:59 PM CDT
Nautical Twilight 6:58 AM CDT 7:30 PM CDT
Astronomical Twilight 6:28 AM CDT 8:00 PM CDT
Moon 9:24 PM CDT (11/2) 11:13 AM CDT (11/2)
Length of Visible Light 11h 30m
Length of Day
10h 37m
Waning Gibbous, 87% of the Moon is Illuminated
Nov 2
Waning Gibbous
Nov 6
Last Quarter
Nov 13
New
Nov 20
First Quarter
Nov 28
Full

Hourly Weather History & Observations

Time (CDT) Temp. Windchill Dew Point Humidity Pressure Visibility Wind Dir Wind Speed Gust Speed Precip Events Conditions
12:15 AM 51.8 °F - 41.0 °F 67% 29.90 in 10.0 mi Calm Calm - N/A   Clear
12:35 AM 51.8 °F - 41.0 °F 67% 29.90 in 10.0 mi South 4.6 mph - N/A   Clear
12:55 AM 50.0 °F - 41.0 °F 71% 29.90 in 10.0 mi South 4.6 mph - N/A   Clear
1:15 AM 50.0 °F - 41.0 °F 71% 29.89 in 10.0 mi Calm Calm - N/A   Clear
1:35 AM 51.8 °F - 41.0 °F 67% 29.89 in 10.0 mi SSE 3.5 mph - N/A   Clear
1:55 AM 50.0 °F - 41.0 °F 71% 29.88 in 10.0 mi Calm Calm - N/A   Clear
2:15 AM 50.0 °F - 41.0 °F 71% 29.88 in 10.0 mi Calm Calm - N/A   Clear
2:35 AM 50.0 °F - 42.8 °F 76% 29.88 in 10.0 mi Calm Calm - N/A   Clear
2:55 AM 50.0 °F - 42.8 °F 76% 29.87 in 10.0 mi SSW 3.5 mph - N/A   Clear
3:15 AM 50.0 °F - 42.8 °F 76% 29.87 in 10.0 mi SSW 3.5 mph - N/A   Clear
3:35 AM 50.0 °F - 42.8 °F 76% 29.87 in 10.0 mi SSW 3.5 mph - N/A   Clear
3:55 AM 48.2 °F - 42.8 °F 82% 29.86 in 10.0 mi South 3.5 mph - N/A   Clear
4:15 AM 48.2 °F - 42.8 °F 82% 29.85 in 10.0 mi SSW 3.5 mph - N/A   Clear
4:35 AM 48.2 °F - 42.8 °F 82% 29.85 in 10.0 mi South 3.5 mph - N/A   Clear
4:55 AM 46.4 °F - 41.0 °F 81% 29.85 in 10.0 mi Calm Calm - N/A   Clear
5:15 AM 46.4 °F - 41.0 °F 81% 29.85 in 10.0 mi Calm Calm - N/A   Clear
5:35 AM 46.4 °F - 42.8 °F 87% 29.85 in 10.0 mi Calm Calm - N/A   Clear
5:55 AM 44.6 °F - 41.0 °F 87% 29.85 in 10.0 mi Calm Calm - N/A   Clear
6:15 AM 46.4 °F - 42.8 °F 87% 29.84 in 10.0 mi Calm Calm - N/A   Scattered Clouds
6:50 AM 44.6 °F - 42.8 °F 93% 29.84 in 10.0 mi Calm Calm - N/A   Scattered Clouds
7:50 AM 46.4 °F 44.3 °F 42.8 °F 87% 29.85 in 10.0 mi South 4.6 mph - N/A   Mostly Cloudy
9:50 AM 59.0 °F - 48.2 °F 67% 29.87 in 10.0 mi SSE 8.1 mph - N/A   Mostly Cloudy
10:50 AM 71.6 °F - 48.2 °F 43% 29.86 in 10.0 mi SSW 11.5 mph - N/A   Mostly Cloudy
11:55 AM 78.8 °F - 50.0 °F 36% 29.85 in 10.0 mi SSW 4.6 mph - N/A   Mostly Cloudy
12:50 PM 82.4 °F - 50.0 °F 32% 29.83 in 10.0 mi SSW 23.0 mph - N/A   Mostly Cloudy
1:50 PM 86.0 °F - 48.2 °F 27% 29.79 in 10.0 mi SSW 21.9 mph - N/A   Mostly Cloudy
2:50 PM 89.6 °F - 41.0 °F 18% 29.77 in 10.0 mi SSW 23.0 mph 32.2 mph N/A   Scattered Clouds
3:50 PM 87.8 °F - 41.0 °F 19% 29.75 in 10.0 mi SSW 28.8 mph 36.8 mph N/A   Scattered Clouds
5:50 PM 84.2 °F - 44.6 °F 25% 29.77 in 10.0 mi South 18.4 mph 27.6 mph N/A   Scattered Clouds
6:50 PM 77.0 °F - 46.4 °F 34% 29.80 in 10.0 mi SW 9.2 mph - N/A   Scattered Clouds
8:51 PM 68.0 °F - 37.4 °F 33% 29.87 in 10.0 mi NNW 18.4 mph - N/A   Clear
9:15 PM 64.4 °F - 39.2 °F 40% 29.89 in 10.0 mi NNW 15.0 mph - N/A   Clear
9:35 PM 64.4 °F - 41.0 °F 42% 29.90 in 10.0 mi NNW 15.0 mph - N/A   Clear
9:55 PM 62.6 °F - 42.8 °F 48% 29.91 in 10.0 mi NNW 17.3 mph - N/A   Clear
10:35 PM 60.8 °F - 42.8 °F 52% 29.93 in 10.0 mi NNW 18.4 mph - N/A   Clear
10:55 PM 60.8 °F - 42.8 °F 52% 29.94 in 10.0 mi NNW 18.4 mph 23.0 mph N/A   Clear
11:15 PM 59.0 °F - 42.8 °F 55% 29.95 in 10.0 mi NNW 16.1 mph - N/A   Clear
11:35 PM 59.0 °F - 42.8 °F 55% 29.95 in 10.0 mi NNW 13.8 mph - N/A   Clear
11:55 PM 57.2 °F - 42.8 °F 59% 29.96 in 10.0 mi NNW 15.0 mph 20.7 mph N/A   Clear